Location: Horowhenua
(40.7500°S, 175.3333°E)
Time: 00:54:33
(UTC+00:00)

NOSS 2-3 (C) - Pass Details

Date: 28 January 2023
Orbit: 516 x 1691 km, 63.3° (Epoch: 16 March)

Event Time Altitude Azimuth Distance (km) Brightness Sun altitude
Rises 13:00:44 0° 215° (SW) 4,328 8.5 -30.7°
Reaches altitude 10° 13:03:57 10° 215° (SW) 3,168 7.7 -30.6°
Enters shadow 13:11:09 83° 191° (S) 976 4.4 -30.4°
